Flag for Romania Weather past 2 weeks in Oradea, Romania

Now
32 °F

Passing clouds.


Feels Like: 23 °F
Forecast: 35 / 50 °F
Wind: 12 mph from Southwest

Location: Oradea Airport

Current Time: Jan 29, 2015 at 2:59:15 AM

Latest Report: Jan 29, 2015 at 2:00 AM


Visibility: N/A

Pressure: 29.86 "Hg

Humidity: 80%

Dew point: 27 °F

Location of OradeaLocation

Historic Weather in Oradea — Graph

°F

Oradea temperature yesterday

Maximum temperature yesterday: 37 °F (at 12:30 PM)
Minimum temperature yesterday: 32 °F (at 1:00 AM)
Average temperature yesterday: 35 °F

Past Weeks' High & Low Weather Summary

 TemperatureHumidityPressure
High57 °F (Jan 17, 12:00 PM)100% (Jan 18, 8:30 PM)30.21 "Hg (Jan 18, 8:30 PM)
Low28 °F (Jan 14, 6:00 AM)26% (Jan 16, 2:00 PM)29.71 "Hg (Jan 24, 1:30 PM)
Average41 °F82%30.00 "Hg
* Reported Jan 14 1:00 AM — Jan 29 1:00 AM, Oradea, Weather by CustomWeather, © 2014

Note: Actual official high and low records may vary slightly from our data, if they occured in-between our weather recording intervals... More about our weather records

Advertising

Oradea weather history for previous 24 hours

 ConditionsComfort  
Time TempWeatherWind HumidityBarometerVisibility
1:00 AM
Jan 29
34 °FFog.9 mph87%29.89 "Hg2 mi
12:00 AM34 °FFog.9 mph87%29.92 "Hg2 mi
11:00 PM
Jan 28
34 °FFog.7 mph87%29.92 "Hg2 mi
10:30 PM36 °FFog.7 mph87%29.92 "Hg3 mi
10:00 PM36 °FPassing clouds.7 mph87%29.95 "Hg4 mi
9:30 PM36 °FOvercast.5 mph81%29.95 "Hg4 mi
9:00 PM36 °FPassing clouds.5 mph81%29.95 "Hg5 mi
8:30 PM36 °FOvercast.5 mph81%29.95 "Hg4 mi
8:00 PM36 °FPassing clouds.5 mph81%29.95 "Hg4 mi
7:30 PM36 °FPartly cloudy.7 mph81%29.95 "Hg4 mi
7:00 PM34 °FPartly cloudy.7 mph87%29.98 "Hg4 mi
6:30 PM36 °FMostly cloudy.7 mph81%29.98 "Hg4 mi
6:00 PM32 °FPassing clouds.7 mph87%29.98 "Hg4 mi
5:30 PM36 °FPassing clouds.5 mph81%29.95 "Hg4 mi
5:00 PM36 °FScattered clouds.2 mph81%29.98 "Hg5 mi
4:30 PM37 °FClear.2 mph75%29.98 "Hg5 mi
4:00 PM37 °FClear.2 mph75%29.95 "Hg5 mi
3:30 PM37 °FScattered clouds.5 mph75%29.98 "Hg4 mi
3:00 PM37 °FScattered clouds.7 mph75%29.98 "Hg4 mi
2:30 PM37 °FPartly sunny.9 mph81%29.98 "Hg4 mi
2:00 PM37 °FPartly sunny.9 mph81%29.98 "Hg4 mi
1:30 PM37 °FPartly sunny.9 mph81%29.98 "Hg4 mi
1:00 PM37 °FPassing clouds.7 mph87%30.01 "Hg4 mi
12:30 PM37 °FPassing clouds.5 mph87%30.01 "Hg4 mi
12:00 PM36 °FFog.7 mph87%30.01 "Hg3 mi
11:30 AM36 °FFog.5 mph87%30.01 "Hg3 mi
11:00 AM36 °FFog.5 mph87%30.01 "Hg2 mi
10:30 AM34 °FFog.7 mph93%30.01 "Hg2 mi
10:00 AM34 °FFog.9 mph87%30.01 "Hg2 mi
9:30 AM34 °FFog.7 mph93%30.01 "Hg1 mi
9:00 AM32 °FIce fog.5 mph93%30.01 "Hg2 mi
8:30 AM32 °FIce fog.9 mph93%30.01 "Hg2 mi
8:00 AM32 °FIce fog.7 mph93%29.98 "Hg2 mi
7:30 AM32 °FIce fog.5 mph93%29.98 "Hg2 mi
7:00 AM32 °FIce fog.7 mph93%29.98 "Hg2 mi
6:30 AM34 °FFog.5 mph93%29.98 "Hg2 mi
6:00 AM32 °FIce fog.5 mph93%29.98 "Hg2 mi
5:30 AM32 °FIce fog.7 mph100%29.98 "Hg2 mi
5:00 AM32 °FIce fog.7 mph100%29.98 "Hg2 mi
4:00 AM32 °FIce fog.7 mph93%29.98 "Hg1 mi
3:00 AM32 °FIce fog.7 mph93%30.01 "Hg2 mi
2:00 AM32 °FIce fog.7 mph93%29.98 "Hg2 mi
Weather by CustomWeather, © 2014

See weather overviewHow to use our weather pages